STARLINK-32598, 62046

Orbit data source: Space-Track

STARLINK-32598, 62046 is a payload satellite owned by SpaceX/Seattle (US) in LEO that was launched on Thu, 21 Nov 2024 UTC via an FALCON 9 launch vehicle from the Air Force Eastern Test Range (AFETR). Payload-class satellites include a variety of spacecraft equipped with specific instruments for various scientific and technological missions. These include communications satellites like Starlink; space stations such as the ISS; scientific satellites like the Hubble; Earth observation satellites from companies like Planet Labs, Umbra, and HawkEye 360; GPS; miniature CubeSats for education and research; and military/defense satellites.

Loading next visibility...
Identifier
62046, 2024-216Q
Orbit
LEO
Country
Flag of USUS
Related business
Manufacturer
SpaceX/Seattle
Mission
Operational Commercial Communications
Bus & Motor
STARLINK V2M, Unknown motor
Mass
730 kg wet, ~700 kg dry
Launch date (UTC)
2024-11-21 (1 year ago)
Launch vehicle
FALCON 9
Launch site
Air Force Eastern Test Range (AFETR)
Object type
Payload
Rocket body
Debris
Shape & HBR
Box + 2 Pan, 17.7 m
Radar Cross Section
33.884 m², Large (>1 m²)

Expand to show TLE details & history
Last TLE update: 13 hours ago

TLE from 13 hours ago
0 STARLINK-32598
1 62046U 24216Q   26124.87277382  .00022569  00000-0  82729-3 0  9997
2 62046  43.0010 298.5543 0001138 265.2155  94.8567 15.27574838 82473
Epoch: 2026-05-04T20:56Z
TLE epoch observation values (Epoch: 2026-05-04T20:56:47.658Z)
Latitude
0.00002°
Longitude
121.60001°
Altitude
482.906 km
Speed
7.626 km/s
True Right ascension
19h 54m 13s
True Declination
0° 00' 00"
Sunlit
Object was in daylight at epoch
Visualization orbit readout
Latitude
Unknown
Longitude
Unknown
Altitude
Unknown
Speed
Unknown
Apparent Right ascension
Unknown
Apparent Declination
Unknown
Sunlit
N/A
Visualization observer readout
Local Sidereal Time
18:10:23
Azimuth
Unknown
Elevation
Unknown
Doppler factor
Unknown
Orbital elements
Apogee altitude
485.791 km
Perigee altitude
484.229 km
Semi-major axis
6,863.147 km
Eccentricity
0.00011
Inclination
43.001°
RAAN
298.5543°
Arg. of periapsis
265.2155°
True anomaly
94.86969°
Mean anomaly
94.8567°
Eccentric anomaly
94.8632°
Mean motion
3.81732 °/min
Orbital period
94.31 mins
BSTAR
0.00082729
Loading maneuver chart data...
Computing Atmospheric mass density...
Loading historical data...
Loading historical data...
Loading historical data...
Loading historical data...
Loading historical data...
Loading historical data...
Loading historical data...

Documentation

Showing up to 5 results
|